Погода в Удонтхани

Таиланд     17°24′25″N   102°47′25″E
темп.,
°C
ветер,
м/с
пор.,
м/с
влажн.,
%
обл.,
%
осадки,
мм/ч
давл.,
гПа
погр.,
м
29 июля, чт
чт2901:00+25юз3883100 0.1 1003227
04:00+25зюз2581100 0.0 1002149
07:00+26зюз258377 0.0 1004201
10:00+27зюз3674100 0.0 1005453
13:00+27зсз3679100 0.0 1004375
16:00+26зюз3682100 0.1 1002198
19:00+26ююз3487100 2.2 100379
22:00+26юз3687100 0.1 1005133
30 июля, пт
пт3001:00+25з3888100 0.1 1004188
04:00+25з3589100 0.4 1004105
07:00+26з268697 0.4 1005211
10:00+29з4667100 0.0 1006775
13:00+32зсз575696 0.0 10041542
16:00+31зюз5763100 0.0 1002858
19:00+28з3475100 0.3 100375
22:00+27зюз3479100 0.0 100687
31 июля, сб
сб3101:00+26юз3681100 0.0 1004165
04:00+26зюз2581100 0.0 1003121
07:00+26зюз2482100 0.0 1005166
10:00+27зюз3676100 0.0 1006485
13:00+31з5756100 0.0 10041427
16:00+29з4767100 0.0 1003687
19:00+27з2374100 0.0 100367
22:00+26зюз247998 0.0 100592
1 августа, вс
вс101:00+25зюз2583100 0.0 1004145
04:00+25зюз2583100 0.0 1003128
07:00+25зюз2584100 0.0 1004192
10:00+29зюз4668100 0.0 10051051
13:00+30зюз4566100 0.0 10021114
16:00+30юз4564100 0.0 10011131
19:00+27ююз3678100 0.0 1002172
22:00+26юз3579100 0.1 1004128
2 августа, пн
пн201:00+26зюз2682100 0.1 1003174
04:00+25зюз228397 0.0 100243
07:00+26з2481100 0.0 1003174
10:00+30з456394 0.0 10041133
13:00+31з5660100 0.1 10021465
16:00+32зюз345975 0.1 10011336
19:00+28зсз2277100 1.5 100225
22:00+26зюз228788 1.9 100420